Home   Weather   Schlieren   Past weeks

Flag for Switzerland Past Weather in Schlieren, Zurich, Switzerland — Yesterday and Last 2 Weeks

Now
38 °F

Chilly.


Feels Like: 38 °F
Forecast: 24 / 41 °F
Wind: 1 mph from Southeast

Location: Zuerich-Fluntern

Current Time: Dec 10, 2016 at 7:25:04 pm

Latest Report: Dec 10, 2016 at 6:00 pm


Visibility: N/A

Pressure: 30.37 "Hg

Humidity: 74%

Dew Point: 30 °F

Location of SchlierenLocation

Past Weather in Schlieren — Graph

°F

Schlieren Temperature Yesterday

Maximum temperature yesterday: 44 °F (at 3:00 pm)
Minimum temperature yesterday: 30 °F (at 7:00 am)
Average temperature yesterday: 35 °F

High & Low Weather Summary for the Past Weeks

 TemperatureHumidityPressure
High47 °F (Dec 10, 3:00 pm)100% (Dec 1, 6:00 am)30.68 "Hg (Dec 1, 6:00 am)
Low25 °F (Nov 29, 8:00 am)48% (Dec 10, 3:00 pm)30.02 "Hg (Nov 27, 3:00 pm)
Average34 °F85%30.37 "Hg
* Reported Nov 25 6:00 pm — Dec 10 6:00 pm, Schlieren, Weather by CustomWeather, © 2016

Note: Actual official high and low records may vary slightly from our data, if they occured in-between our weather recording intervals... More about our weather records

Advertising

Schlieren Weather History for the Previous 24 Hours

Scroll right to see more
 ConditionsComfort  
Time TempWeatherWind HumidityBarometerVisibility
6:00 pm
Sat, Dec 10
38 °FChilly.1 mph74%30.37 "HgN/A
5:00 pm40 °FChilly.No wind66%30.37 "HgN/A
4:00 pm46 °FCool.2 mph51%30.34 "HgN/A
3:00 pm47 °FCool.2 mph48%30.34 "HgN/A
2:00 pm44 °FQuite cool.2 mph56%30.36 "HgN/A
1:00 pm44 °FSunny.2 mph56%30.38 "HgN/A
12:00 pm40 °FQuite cool.1 mph67%30.41 "HgN/A
11:00 am36 °FChilly.1 mph76%30.44 "HgN/A
10:00 am34 °FChilly.No wind87%30.45 "HgN/A
9:00 am32 °FChilly.1 mph94%30.46 "HgN/A
8:00 am31 °FChilly.No wind95%30.46 "HgN/A
7:00 am31 °FChilly.1 mph92%30.45 "HgN/A
6:00 am31 °FChilly.1 mph91%30.46 "HgN/A
1:00 am31 °FChilly.1 mph88%30.50 "HgN/A
12:00 am31 °FChilly.1 mph90%30.51 "HgN/A
11:00 pm
Fri, Dec 9
33 °FChilly.1 mph85%30.52 "HgN/A
10:00 pm34 °FChilly.1 mph84%30.52 "HgN/A
9:00 pm34 °FChilly.2 mph82%30.52 "HgN/A
8:00 pm35 °FChilly.1 mph83%30.53 "HgN/A
7:00 pm36 °FPassing clouds.1 mph79%30.53 "HgN/A
Weather by CustomWeather, © 2016

See weather overviewHow to use our weather pages